GFSNGP_sfc_temp_057.txt.gz
Temp
56 62 64 64 65 65 58 56 55 57 55 59 63 62 64 64 64 65 66 68 68 68 67 67 67 68 68 69 68 67 67 67 67 67 67 67 67 67 67 66 66 64 63 62
53 62 63 63 67 66 65 62 60 57 56 61 62 61 62 64 64 64 66 70 70 68 68 66 67 68 68 69 68 67 67 66 67 67 67 67 67 68 67 66 64 64 62 62
49 56 59 54 61 63 63 62 59 54 61 60 59 62 63 63 66 66 68 70 69 68 68 67 68 68 68 68 68 67 67 67 68 68 66 66 67 66 66 65 64 63 62 61
48 50 43 59 66 68 65 64 61 61 64 62 64 66 63 61 65 67 71 71 70 68 68 67 68 68 68 68 67 67 66 66 68 67 66 66 66 66 66 65 65 63 61 60
47 44 53 61 63 62 58 60 62 60 63 65 64 65 63 66 68 69 71 70 70 71 69 66 68 68 68 67 67 66 66 66 66 66 65 65 64 64 64 64 65 63 62 61
44 44 44 54 64 66 64 53 63 61 61 61 64 55 63 66 68 68 69 70 70 69 68 67 66 68 67 66 66 65 64 65 65 64 64 64 63 62 62 64 64 65 63 62
45 45 50 55 59 64 50 50 55 58 57 59 59 61 63 65 65 65 66 66 67 67 66 66 67 67 65 64 64 64 64 63 63 63 62 63 63 62 61 62 64 63 64 63
44 43 44 58 59 51 51 53 57 59 60 59 60 63 63 64 65 65 65 65 66 65 64 65 66 65 62 63 62 63 62 62 61 62 62 63 62 62 61 61 61 64 63 62
47 45 54 56 53 55 53 54 57 56 59 61 61 64 63 62 64 64 64 64 64 64 64 64 64 65 64 64 63 63 61 62 63 61 61 60 61 62 61 60 61 63 63 63
47 52 53 56 55 56 57 57 59 60 62 62 60 62 63 62 64 64 64 63 64 64 63 63 64 65 64 65 65 65 63 62 62 62 61 60 59 59 59 62 62 63 63 63
48 52 55 55 54 55 57 59 60 61 61 61 61 60 61 61 64 63 63 62 63 63 62 61 61 61 61 62 62 62 62 62 62 62 61 59 55 56 56 56 55 57 61 63
45 52 50 51 54 57 56 57 59 58 59 61 62 62 64 63 64 64 63 62 61 61 61 60 60 60 60 60 61 60 59 58 58 58 57 56 56 55 50 49 46 44 43 46
51 53 53 55 56 59 58 57 58 59 61 60 62 63 64 64 64 63 65 64 63 63 62 61 60 59 60 60 59 59 58 57 57 56 57 56 54 54 56 53 46 45 44 44
54 54 52 54 54 58 59 60 60 60 60 62 62 60 58 62 62 62 63 65 65 64 63 62 61 60 60 60 59 58 57 55 56 55 55 56 56 55 54 56 56 57 46 44
55 55 54 54 55 56 59 59 58 58 59 59 61 60 60 59 59 60 62 64 64 65 64 63 62 62 62 61 60 59 57 57 56 56 55 55 56 55 55 56 57 57 55 48
56 55 55 55 55 56 58 58 57 57 58 58 59 59 59 60 60 60 61 62 60 58 59 59 58 59 60 60 59 58 57 57 56 56 56 55 55 55 55 55 55 54 53 52
52 51 52 53 55 56 58 59 59 60 59 58 58 59 61 60 60 59 59 60 59 57 57 57 56 58 58 56 57 58 58 58 58 58 57 57 56 55 55 55 56 55 56 58
56 57 54 54 56 56 57 59 58 59 59 61 60 60 58 57 55 55 55 56 56 55 55 55 56 55 55 55 54 54 56 57 57 57 57 57 57 56 55 55 56 57 58 54
58 58 58 59 57 56 58 57 57 58 58 58 56 54 55 54 54 54 54 53 51 50 51 52 58 54 52 55 56 53 54 55 56 56 57 56 56 55 55 54 54 55 55 54
59 60 61 60 60 58 56 57 57 56 57 57 56 54 53 53 53 53 52 49 49 49 50 50 52 51 51 52 56 52 53 54 55 55 55 55 55 55 54 51 54 55 54 55
57 57 57 58 58 60 57 56 57 57 56 55 53 52 51 50 51 51 48 47 49 50 50 52 50 50 51 53 53 51 51 52 53 54 55 57 56 53 52 54 53 53 54 53
53 53 54 55 54 53 54 53 53 53 52 51 51 50 48 47 48 48 48 50 51 51 53 53 53 55 56 56 54 53 55 54 53 54 53 54 53 52 51 51 51 50 52 52
51 52 53 53 53 52 52 52 52 51 50 49 48 47 46 46 47 49 50 53 53 52 55 51 52 52 54 55 55 53 53 54 54 53 52 52 52 50 50 51 51 51 52 52
51 52 52 52 52 52 50 50 50 50 49 49 48 48 47 47 49 52 53 51 50 50 50 49 49 50 51 53 52 51 52 52 52 52 53 48 52 52 52 52 52 52 52 52
52 52 52 51 51 50 50 50 49 48 48 48 48 47 47 48 48 48 48 48 48 48 47 48 49 49 48 48 51 49 48 49 49 49 49 49 49 51 51 51 51 51 52 52
50 50 50 50 50 50 50 50 48 47 48 48 47 47 47 47 47 47 47 48 46 47 46 46 46 45 46 46 46 46 48 48 46 48 47 48 49 49 51 51 50 50 50 51
50 46 50 51 50 50 50 49 48 48 48 48 48 49 48 48 47 46 47 47 46 46 46 46 46 47 46 45 45 45 45 46 43 45 45 45 46 46 46 47 47 47 48 48

GFSNGP_sfc_temp_060.txt.gz
Temp
53 58 60 61 63 62 56 55 55 56 55 61 62 63 64 63 63 64 66 66 67 67 66 67 68 69 69 70 69 69 69 68 68 68 69 69 68 68 68 68 68 67 67 66
51 60 61 60 63 64 62 58 58 57 57 61 63 62 64 65 63 63 65 66 68 69 68 67 68 69 70 69 69 69 68 68 69 68 68 68 68 68 68 67 66 66 65 65
47 54 57 53 58 61 63 61 60 55 62 63 63 61 63 64 63 65 66 67 68 69 69 68 69 70 69 69 69 68 68 69 69 69 68 67 67 67 66 65 65 64 63 65
47 49 42 56 63 63 63 60 59 60 62 61 61 62 64 63 65 65 68 69 70 69 68 68 69 69 69 69 69 68 67 68 68 68 68 67 67 66 66 66 65 64 62 62
46 43 52 58 59 57 54 52 55 52 57 60 62 65 63 66 66 66 67 69 70 69 69 68 69 69 69 68 68 67 67 67 68 68 67 67 67 66 66 66 66 63 63 61
42 43 43 50 58 62 59 50 56 55 56 56 60 54 59 64 67 67 68 70 69 69 69 68 68 69 68 67 67 66 67 67 67 67 66 65 65 64 65 65 65 65 62 61
43 44 48 54 57 60 50 50 54 56 56 56 55 59 63 66 65 65 65 67 68 68 68 68 68 68 67 66 66 67 66 65 65 66 65 65 64 64 63 63 64 64 63 62
41 41 41 57 58 52 52 53 55 56 58 58 59 61 63 65 65 65 64 65 65 65 64 65 66 66 64 64 64 65 64 64 63 63 64 64 65 64 63 63 63 63 64 62
45 45 53 54 53 55 54 56 57 58 59 59 60 62 62 62 65 64 64 64 65 65 65 65 64 65 64 64 64 63 62 62 63 63 63 63 63 64 63 62 62 63 62 62
47 52 52 55 56 55 56 55 57 59 59 59 58 60 61 61 63 64 63 63 64 64 64 64 64 64 65 65 65 64 62 64 63 63 63 62 61 61 61 61 62 63 64 63
50 52 53 54 55 55 56 58 58 60 60 59 59 60 61 60 62 64 63 64 65 64 63 63 63 63 64 64 65 65 64 63 63 62 62 61 59 59 59 59 58 60 59 60
45 52 52 52 55 57 57 57 57 56 57 59 60 59 61 60 61 64 63 63 63 62 62 61 62 61 62 62 63 62 61 61 60 61 60 60 58 59 52 50 47 45 43 47
51 54 54 55 56 58 57 57 59 59 59 57 60 60 60 63 62 62 63 62 62 62 62 62 62 61 62 61 62 61 60 60 60 58 60 59 58 58 59 56 46 44 42 42
54 54 54 56 54 58 58 59 59 59 59 60 60 59 60 60 61 61 61 62 62 62 62 62 62 62 62 62 62 61 61 53 60 60 60 60 60 60 59 59 59 61 47 45
56 55 55 55 55 56 57 58 57 57 59 58 60 59 60 59 59 60 61 61 60 60 61 61 62 61 62 63 62 61 60 60 60 60 60 58 60 60 60 60 59 60 61 51
57 56 55 54 54 55 56 57 56 56 58 59 59 58 60 60 60 59 59 59 57 55 57 58 58 59 60 61 62 61 61 57 58 61 61 60 60 60 60 60 59 59 60 61
53 54 55 54 55 55 56 56 57 58 58 59 59 59 60 59 58 57 56 56 56 56 56 56 56 58 59 58 58 58 59 60 57 60 60 61 61 61 61 60 60 61 61 61
56 56 55 55 55 55 55 56 56 56 56 57 58 57 56 56 54 54 55 55 55 54 54 54 57 56 57 57 56 56 57 57 58 59 60 60 60 61 61 61 60 60 61 60
58 57 57 58 57 55 57 57 57 57 57 57 56 54 54 54 54 54 53 53 52 51 52 53 56 54 54 55 58 56 56 56 57 58 59 56 59 60 60 60 61 61 61 60
56 58 58 57 58 56 56 57 57 56 56 56 55 53 52 52 53 52 51 49 50 51 52 52 53 53 54 54 55 55 54 55 55 56 57 58 59 59 59 53 58 60 60 59
55 55 56 57 57 57 56 56 55 53 53 54 52 51 50 50 51 51 49 50 52 54 54 55 55 56 57 57 56 55 54 55 56 55 55 56 57 57 56 57 57 58 58 57
55 55 54 55 54 53 54 53 53 52 51 51 51 50 49 48 49 51 52 51 53 51 55 53 53 54 56 55 56 55 55 55 54 54 53 54 54 53 54 53 52 54 54 54
54 53 54 53 52 51 52 52 51 51 50 49 49 48 49 50 52 51 51 53 54 51 52 52 51 52 53 54 53 53 53 54 53 53 53 53 53 53 52 52 52 52 53 53
51 52 52 52 52 51 49 50 50 50 50 50 49 49 49 50 51 52 53 50 48 48 51 51 50 50 52 53 52 51 52 53 52 53 52 48 52 52 52 53 53 54 53 51
51 52 52 51 51 50 49 51 51 49 49 49 49 50 50 50 50 49 50 50 47 49 50 48 49 49 51 51 50 49 49 50 49 52 52 52 52 53 53 53 53 53 54 54
50 50 50 51 51 51 51 52 50 49 50 49 49 50 50 50 50 50 50 49 49 48 49 49 50 51 50 50 50 49 49 49 49 50 51 52 53 52 52 53 53 53 53 53
50 46 51 50 51 51 53 51 51 51 51 51 51 51 51 51 50 50 49 51 51 51 50 51 51 50 51 51 51 51 51 50 45 49 51 51 52 52 52 52 52 52 52 51

GFSNGP_sfc_temp_063.txt.gz
Temp
69 70 71 73 73 71 70 72 72 73 72 78 75 73 77 78 76 74 77 78 79 79 78 78 78 79 80 82 81 81 79 79 78 79 79 78 77 77 77 77 77 76 73 76
69 70 71 71 73 72 72 70 71 71 72 74 76 78 77 75 75 73 75 78 79 79 79 77 79 80 81 81 80 80 79 78 78 77 77 77 77 77 76 74 73 73 69 72
64 66 69 67 69 72 72 70 68 71 69 70 71 71 72 74 75 76 77 79 78 79 80 78 79 80 80 80 80 79 78 78 77 77 76 76 76 75 75 73 72 71 70 67
65 64 56 66 71 72 67 63 65 66 66 67 68 72 74 73 73 74 77 79 80 81 81 79 79 80 81 80 78 77 77 77 77 77 76 76 75 74 74 74 72 72 65 65
61 60 62 65 64 63 63 63 63 63 66 69 72 75 70 73 72 73 76 79 80 82 81 79 81 80 79 79 78 77 77 77 77 77 76 75 72 70 71 71 70 69 67 63
58 56 54 60 64 65 65 63 65 63 64 65 70 75 76 71 70 69 74 77 79 80 79 79 79 79 77 77 77 77 78 77 77 77 75 71 70 69 70 69 70 67 66 68
60 59 59 64 64 66 58 61 64 64 64 64 65 69 71 74 70 68 68 73 79 78 75 75 75 76 76 76 76 77 77 76 75 75 74 74 73 72 72 71 70 70 68 67
57 56 54 64 65 60 61 63 63 64 63 61 65 68 70 73 73 68 65 68 71 68 66 67 68 71 72 73 73 75 73 73 73 72 73 73 72 70 70 70 69 68 68 66
56 58 61 64 62 63 63 61 63 63 65 65 65 66 68 69 72 70 69 69 71 68 65 64 63 65 65 65 69 70 70 68 67 68 68 69 68 66 66 69 70 68 66 70
57 61 63 64 64 64 64 62 64 65 65 66 64 67 67 69 71 71 69 70 70 66 63 61 63 65 65 65 66 67 67 67 69 69 69 71 72 72 72 66 65 66 65 64
61 63 63 64 64 64 63 64 65 66 65 65 65 65 66 67 68 70 70 69 70 68 65 65 66 66 66 66 67 66 66 68 69 69 68 70 70 69 69 69 65 66 65 63
60 62 62 63 64 65 63 64 65 65 65 67 66 64 64 65 68 69 70 68 69 69 68 66 67 66 66 67 68 68 68 70 72 73 73 72 71 72 53 53 48 45 45 51
62 63 63 65 65 65 63 65 66 64 65 63 65 66 63 61 63 62 67 71 65 66 68 66 66 65 67 66 69 68 68 70 70 68 73 72 72 73 72 64 47 44 43 43
64 63 64 63 63 64 64 65 64 66 65 63 63 66 64 61 62 61 60 60 61 61 62 62 63 63 67 67 68 68 70 56 73 73 74 74 73 74 75 72 72 73 50 49
66 66 65 65 64 64 65 65 64 64 64 63 66 64 66 60 59 60 61 61 60 59 58 58 58 58 62 69 69 69 72 74 74 74 74 70 74 74 74 73 72 72 73 56
66 68 67 64 64 64 65 65 64 64 64 63 63 64 61 59 58 57 58 60 59 57 57 57 57 59 63 66 68 69 72 61 62 73 75 73 74 74 74 73 72 73 73 74
63 65 65 64 63 63 63 65 66 65 63 61 63 65 61 58 59 56 55 55 55 54 55 56 56 60 65 66 68 71 73 73 59 70 71 73 73 73 72 71 72 73 74 71
65 66 66 65 64 64 64 65 65 65 64 65 66 65 64 63 59 56 57 58 58 58 58 59 61 62 63 63 63 65 68 69 69 70 72 71 71 72 72 72 72 72 72 70
66 66 66 66 65 64 63 61 62 62 62 63 64 62 62 61 61 60 61 60 58 57 57 60 57 61 61 60 61 66 66 63 65 66 66 61 69 71 71 71 72 73 72 72
64 64 66 66 66 66 65 65 64 61 62 63 62 61 60 59 60 59 59 53 52 54 56 59 61 61 59 59 59 60 60 64 64 61 61 66 70 67 68 58 66 67 68 69
63 64 64 65 65 65 66 66 65 63 62 62 61 59 58 58 59 58 55 54 55 58 60 58 60 61 61 59 61 60 57 57 57 57 57 59 62 65 65 63 65 66 65 64
59 61 61 63 63 62 63 63 63 61 60 59 59 58 55 55 54 55 55 54 57 51 60 61 56 55 57 58 61 58 56 56 56 58 57 57 57 57 58 58 58 57 59 58
61 61 62 62 61 60 61 61 61 60 59 58 57 53 53 53 54 54 53 57 60 54 61 57 52 53 54 59 61 62 59 57 57 56 55 55 56 57 58 60 62 62 61 61
61 62 62 61 61 60 58 58 59 59 59 57 56 57 56 56 56 60 61 53 49 54 58 57 53 52 54 57 56 57 59 55 59 62 59 50 55 56 59 62 63 63 63 61
60 60 60 60 55 55 57 56 59 59 59 58 58 59 59 61 61 60 61 60 48 58 61 50 50 52 62 58 55 56 56 57 62 64 63 63 64 63 63 63 62 62 63 63
59 60 58 58 57 57 57 61 63 62 62 60 61 62 62 62 61 62 61 56 60 55 60 61 62 64 63 63 63 62 63 63 64 63 63 63 64 64 64 64 64 63 62 63
59 50 58 56 59 62 58 63 63 62 62 63 61 63 63 63 61 60 54 62 63 62 62 63 65 61 65 65 64 65 66 64 54 63 63 63 63 63 63 64 64 66 66 64

GFSNGP_sfc_temp_069.txt.gz
Temp
83 84 84 84 84 85 83 83 78 78 72 68 84 85 87 91 91 89 90 91 92 92 91 91 91 91 93 94 94 94 90 89 89 89 88 87 86 86 85 85 85 85 82 82
78 85 84 82 86 86 86 86 85 85 69 85 86 88 87 87 89 87 88 91 92 92 92 90 90 90 92 92 92 94 90 89 88 87 85 85 84 85 85 81 82 80 82 81
70 80 81 74 81 84 86 87 86 77 80 87 83 82 82 84 86 86 88 90 91 92 92 91 91 91 91 91 92 91 87 89 88 86 85 82 83 83 82 81 79 79 79 80
71 67 51 77 87 89 84 84 86 85 81 84 83 84 84 84 83 83 85 86 88 92 93 93 95 93 92 92 89 88 85 88 86 85 84 84 83 82 82 81 79 78 78 78
67 69 75 77 80 82 81 77 81 81 82 83 85 87 79 84 85 84 84 84 86 90 92 93 94 93 91 89 85 86 86 86 86 85 84 80 80 81 81 80 78 78 78 77
70 63 61 68 77 82 82 71 77 78 77 77 83 81 76 81 84 84 86 85 84 87 91 92 91 92 88 83 82 82 86 86 86 85 84 83 81 79 80 78 78 82 80 78
68 65 72 76 78 81 67 66 75 77 76 76 74 75 79 82 81 83 84 85 82 85 88 87 90 86 84 83 83 86 89 87 86 85 83 83 82 79 78 79 81 79 77 77
69 64 60 77 78 68 66 73 74 75 75 74 76 79 79 79 79 81 81 83 81 78 81 81 84 83 82 81 82 88 87 85 84 83 84 83 79 79 80 79 76 75 75 75
64 61 72 77 72 74 76 74 74 74 75 76 76 77 77 77 78 79 81 81 82 79 76 80 81 80 78 80 81 82 81 78 79 78 80 79 77 74 76 75 78 79 78 78
68 71 73 75 77 78 77 75 77 77 78 78 75 77 77 78 76 78 79 79 82 80 77 78 78 79 76 74 69 74 69 69 71 73 75 75 79 78 78 81 77 74 77 76
71 73 75 76 76 76 76 77 77 78 77 76 76 75 74 74 74 75 75 77 80 79 78 79 77 75 77 71 74 72 74 71 74 77 75 73 77 78 81 76 72 78 79 79
59 73 73 72 75 77 76 75 77 75 76 77 75 67 71 65 69 68 68 68 70 72 76 76 79 78 78 78 76 75 72 78 79 79 78 78 77 76 54 55 51 49 47 59
70 77 76 76 76 77 75 76 76 75 76 75 67 72 66 65 66 66 71 68 63 64 68 71 75 76 78 77 77 75 76 77 79 75 79 78 79 80 77 63 48 47 47 47
78 77 74 76 74 77 78 77 74 76 76 75 69 72 71 66 62 62 63 70 67 62 60 60 60 60 62 66 73 72 73 60 76 80 81 80 80 77 82 81 77 75 51 54
78 79 77 78 78 78 79 78 76 75 73 70 72 68 68 63 58 58 60 60 64 64 61 59 58 59 61 61 60 61 63 64 67 69 70 68 73 78 80 82 80 82 80 54
78 79 79 77 76 77 77 77 74 70 71 70 68 68 68 66 61 57 57 57 56 55 58 61 59 59 62 63 62 61 60 59 60 61 63 67 74 75 77 76 78 75 70 66
74 73 74 74 75 75 75 74 71 67 68 70 69 70 70 68 66 64 60 56 56 56 59 59 61 63 65 68 67 62 61 61 62 63 67 63 63 71 77 76 78 76 68 62
79 79 79 78 76 73 73 70 66 64 65 70 71 71 70 68 66 66 67 65 66 67 66 66 66 65 70 69 66 68 71 72 70 71 77 78 79 82 82 80 75 71 67 70
79 77 78 76 76 74 74 72 68 64 65 69 72 71 72 71 70 70 68 66 67 67 62 65 61 65 65 64 65 74 73 74 76 75 77 70 77 80 79 76 77 75 74 65
77 78 77 74 76 74 75 77 75 73 74 74 73 71 70 70 68 66 65 59 60 62 65 65 65 65 66 66 63 69 67 69 70 70 73 74 70 69 71 64 65 66 68 73
76 76 74 73 74 74 74 76 75 73 73 72 71 68 63 63 61 62 60 60 63 65 64 62 67 66 65 64 65 65 63 62 62 63 69 68 70 70 69 69 70 70 70 69
73 73 72 74 74 73 73 75 75 75 72 71 67 68 64 61 61 61 62 60 64 54 64 68 67 58 63 57 66 64 62 61 60 61 63 67 67 67 68 67 66 67 68 68
71 68 71 72 70 70 71 74 74 72 68 64 64 60 60 65 65 62 59 65 65 63 66 68 56 54 55 67 68 68 67 67 66 66 68 67 66 66 68 68 70 70 69 70
69 68 68 72 71 70 67 68 70 69 66 64 65 65 67 65 65 72 69 59 58 59 67 65 62 53 51 75 75 74 72 72 72 73 73 60 74 74 74 73 73 73 72 69
71 70 67 70 68 67 67 69 70 68 66 65 65 66 67 70 72 72 71 69 53 61 69 49 54 54 74 74 74 74 74 75 75 75 74 74 74 73 72 72 72 71 71 71
70 72 73 69 67 68 69 71 68 68 67 63 64 69 74 73 72 72 71 65 71 63 73 72 74 74 75 75 75 75 74 74 75 75 73 74 74 74 73 73 72 72 72 72
72 63 73 73 68 68 69 66 66 69 70 71 70 73 73 73 72 70 62 72 73 73 72 72 75 70 76 76 75 75 74 74 60 74 74 74 73 74 74 71 69 70 71 72

GFSNGP_sfc_temp_072.txt.gz
Temp
81 83 83 80 80 83 80 81 75 78 68 69 69 66 68 86 88 89 90 91 91 90 88 89 89 88 89 90 90 89 84 84 84 81 81 79 81 82 81 80 80 79 78 78
74 82 82 79 83 83 83 84 83 83 70 78 75 79 82 84 87 87 88 90 91 91 89 88 88 88 89 89 89 87 84 84 85 84 80 79 79 81 81 80 81 81 79 77
67 67 68 68 80 77 83 85 83 75 74 76 75 76 76 81 85 86 87 89 90 92 91 89 88 88 88 88 89 88 86 86 84 83 81 80 80 80 80 78 79 78 78 77
67 71 59 71 80 77 81 78 75 69 62 59 67 78 80 83 82 82 83 84 85 87 88 92 93 90 89 89 87 87 85 84 83 82 80 78 79 79 78 78 78 77 77 77
64 66 70 68 66 64 73 63 76 60 64 73 76 78 77 83 84 83 84 83 82 86 88 88 91 91 87 86 82 84 84 82 81 82 80 79 78 78 78 76 76 76 77 76
66 60 57 55 57 60 70 60 72 77 75 76 78 72 69 78 82 82 83 84 81 82 86 88 88 89 86 83 79 80 83 81 82 82 80 79 79 78 77 76 75 78 77 77
66 63 69 73 71 77 60 59 74 75 73 74 70 73 77 80 79 81 82 82 83 81 80 81 82 81 83 82 78 83 82 79 79 80 80 79 78 77 76 76 76 76 75 76
68 64 59 74 75 65 68 71 73 74 74 73 75 77 77 78 77 78 78 79 81 80 78 79 80 79 77 76 78 79 78 78 75 78 82 80 77 75 76 75 75 74 74 74
66 64 72 74 71 74 76 72 73 74 76 76 74 75 77 76 76 76 76 75 78 78 78 79 79 79 76 71 67 67 61 61 72 75 77 77 76 74 76 75 76 73 73 73
68 71 72 72 75 75 75 75 77 77 76 77 74 76 74 74 74 73 73 72 73 73 75 76 79 78 73 68 69 64 61 60 69 71 73 74 71 72 72 74 74 76 74 71
59 72 73 74 75 76 76 77 76 77 77 75 75 72 72 70 70 70 69 67 67 67 68 71 72 78 73 72 69 65 66 66 68 70 69 70 71 71 76 63 70 74 75 75
52 66 57 69 75 77 75 75 76 75 76 73 73 69 69 69 69 68 66 65 63 62 61 62 67 67 68 73 73 70 69 68 69 71 69 70 69 67 57 57 51 47 47 64
59 61 74 76 77 78 76 77 77 75 77 71 72 68 70 68 68 65 68 67 63 61 61 61 60 61 62 63 65 68 68 69 69 66 68 68 69 71 68 61 48 45 46 47
73 73 73 75 73 78 78 78 74 78 75 71 71 69 68 67 66 66 65 67 68 64 60 59 59 59 60 62 61 60 59 57 64 64 65 64 72 75 69 70 66 68 50 51
78 79 78 78 79 79 80 79 77 75 73 71 70 67 68 66 64 63 63 62 62 62 59 59 57 57 60 61 59 59 58 57 58 59 61 62 68 71 72 69 71 70 66 53
79 79 80 77 76 77 76 74 72 71 71 70 68 68 68 67 65 65 65 65 60 56 57 58 59 59 60 62 60 59 59 56 56 57 57 60 63 65 64 64 62 64 67 68
75 73 74 65 73 67 69 72 69 65 64 67 69 70 69 68 67 67 66 65 64 62 59 62 61 64 67 67 68 66 64 63 59 59 58 58 60 60 61 61 63 63 61 59
79 79 79 77 71 69 67 71 69 66 59 60 61 62 67 67 67 67 68 67 66 63 64 64 62 64 67 66 66 67 66 66 61 61 64 61 60 61 63 62 64 64 62 61
80 76 78 77 72 70 73 72 71 70 68 68 66 64 67 66 65 67 66 65 65 64 62 66 62 65 65 63 64 70 70 70 71 72 69 65 69 72 70 71 70 69 69 67
79 79 77 75 75 75 73 68 73 66 69 71 68 66 64 66 66 66 63 61 62 63 64 65 64 66 64 64 63 67 64 66 68 69 68 69 68 64 65 60 66 69 69 66
74 75 71 71 67 75 75 71 71 70 71 69 65 64 65 63 63 63 60 60 61 64 64 62 64 62 65 63 66 63 63 63 65 68 66 68 68 66 65 66 67 64 65 65
71 71 71 64 59 58 71 73 74 69 66 66 68 67 64 61 61 62 64 62 63 56 63 66 64 58 62 57 66 65 63 63 64 67 66 67 66 66 66 65 65 67 67 67
68 70 69 70 62 66 73 71 67 67 66 66 65 62 64 66 65 64 60 65 66 62 66 67 57 56 58 64 67 65 67 66 65 62 62 64 66 67 68 68 68 68 68 68
70 70 69 71 71 68 65 68 68 66 67 66 65 65 64 64 67 70 68 60 59 59 67 65 62 55 51 65 73 72 72 71 72 71 71 60 71 71 70 71 70 69 69 66
71 70 71 69 69 70 67 69 65 64 67 66 65 67 68 70 68 70 70 67 53 59 68 53 55 54 67 74 74 73 73 73 73 74 73 72 72 71 70 70 69 69 69 69
69 71 71 71 71 69 69 69 66 67 68 66 68 71 69 72 71 70 70 64 70 63 71 71 70 71 74 74 74 73 73 73 73 73 72 73 72 71 71 70 70 70 69 69
72 62 73 67 71 71 69 68 67 69 65 68 66 64 68 72 70 68 64 70 71 72 71 71 73 69 74 74 74 74 73 72 62 72 73 72 72 71 71 71 71 70 70 70

GFSNGP_sfc_temp_075.txt.gz
Temp
66 73 77 73 72 73 71 65 63 66 60 61 65 67 66 68 65 67 71 78 78 77 77 77 77 79 81 82 82 82 79 77 76 76 74 73 73 73 73 73 73 75 75 74
61 73 69 71 74 75 73 71 71 69 63 68 68 70 72 67 69 68 78 81 79 80 79 78 80 78 80 80 79 82 80 79 75 76 75 73 73 73 73 72 72 71 70 71
53 63 66 60 63 69 66 64 64 55 58 66 68 71 69 70 74 75 76 78 74 70 74 80 79 76 78 78 79 79 80 79 75 76 74 73 73 75 71 71 71 70 70 70
52 56 46 60 67 67 59 61 63 61 61 64 64 68 68 70 72 74 75 76 75 75 75 74 76 78 81 82 79 77 75 76 76 76 74 73 75 75 71 70 70 70 69 69
50 50 59 62 58 60 56 50 59 58 59 64 64 68 65 72 73 72 74 73 73 75 75 76 75 76 77 78 81 80 77 77 78 78 75 72 73 71 71 70 70 69 69 69
55 48 48 56 61 63 62 47 60 60 58 61 59 52 58 68 74 73 74 73 73 73 74 73 73 75 74 72 75 74 78 77 77 76 73 72 73 72 71 70 70 69 69 69
55 51 55 63 64 64 51 50 62 63 64 63 55 59 63 69 69 71 72 71 73 72 71 71 72 72 71 71 69 71 72 69 64 62 62 69 71 71 70 70 68 68 69 67
49 49 45 67 64 56 59 64 67 67 69 66 65 65 66 70 68 68 67 68 68 67 68 70 71 71 69 68 66 66 65 63 62 61 64 63 64 68 70 67 67 67 67 68
48 48 60 66 62 64 63 64 66 66 68 67 67 67 67 65 64 65 63 62 63 62 63 66 68 67 68 65 66 63 63 60 62 61 64 63 63 64 68 69 67 66 66 66
53 56 58 64 67 68 68 67 69 70 69 69 65 65 64 63 63 62 61 60 63 63 60 60 63 64 69 66 64 61 59 60 61 62 65 60 61 65 67 67 66 65 66 64
53 57 62 58 61 68 69 70 70 71 70 67 66 63 64 62 61 61 60 59 59 58 59 60 61 60 62 64 63 61 59 60 60 60 62 66 66 65 66 62 63 65 64 65
49 54 53 53 59 65 68 68 68 67 65 67 64 62 63 61 61 62 59 58 57 57 57 57 60 60 60 61 62 66 64 63 62 62 65 65 62 60 54 56 52 51 53 58
58 60 59 60 64 71 69 69 70 68 66 63 63 63 62 59 60 60 60 59 57 56 56 57 57 59 59 60 60 59 58 61 63 61 63 62 63 61 60 57 48 45 44 48
65 64 64 67 65 71 72 72 70 68 66 64 62 63 62 60 60 59 57 58 59 57 56 57 56 56 59 60 59 59 58 54 58 57 60 61 61 62 61 60 60 59 48 48
63 69 68 69 68 68 69 68 66 65 64 63 62 62 62 59 58 57 58 58 57 56 56 57 57 57 58 60 59 58 57 57 57 58 57 57 59 60 61 62 60 60 56 50
70 72 68 66 64 65 66 66 61 60 62 61 60 62 61 60 59 59 59 59 55 54 57 56 55 57 61 61 60 59 58 57 56 57 58 59 59 59 59 60 60 60 59 59
64 63 64 62 62 63 62 62 60 58 59 58 58 59 60 61 61 62 59 59 58 57 56 56 55 58 59 58 58 59 60 59 59 57 58 59 59 59 59 59 60 60 59 56
69 69 68 66 63 62 63 63 61 59 57 58 59 59 59 59 58 60 59 59 59 58 61 61 57 58 60 58 57 57 59 60 59 58 59 59 59 60 59 59 60 60 59 57
73 70 71 68 67 65 66 64 63 62 61 60 58 58 60 60 60 59 58 57 55 54 56 57 61 62 58 59 59 59 59 60 61 62 60 59 60 59 60 60 60 60 62 64
70 71 68 67 67 59 57 60 65 64 64 64 61 59 58 58 59 57 56 54 54 54 56 57 60 60 59 60 61 57 57 60 60 59 60 59 60 60 59 56 61 62 61 61
67 68 66 62 59 59 59 58 58 63 63 63 59 57 55 56 57 55 53 54 56 60 55 59 60 59 60 56 58 56 56 56 57 57 59 61 60 60 62 61 61 60 59 60
64 65 63 60 57 56 57 56 56 61 61 62 60 59 56 55 56 57 59 57 59 57 60 60 59 57 57 56 56 57 59 58 59 60 61 60 58 59 60 60 60 60 57 56
63 64 64 63 60 58 56 59 56 61 62 59 57 55 55 56 55 54 52 56 60 58 58 57 55 57 55 54 57 57 58 61 59 59 59 59 60 61 60 59 57 57 55 55
63 63 62 63 64 62 59 59 61 60 59 59 57 58 55 55 58 57 56 55 57 55 56 56 56 55 53 58 60 59 57 58 57 56 56 53 58 57 57 56 56 55 54 54
64 63 62 62 61 58 59 60 60 59 60 59 58 59 59 60 59 59 57 56 54 54 57 56 55 53 54 60 63 62 59 61 61 60 58 59 57 57 56 56 56 55 55 55
62 62 62 63 62 60 62 61 59 60 62 58 59 60 62 62 58 59 58 57 58 56 57 58 58 59 59 59 60 60 59 59 59 58 58 58 58 57 57 57 56 57 56 56
63 59 64 62 63 63 63 61 60 60 61 61 58 60 61 60 60 59 58 59 59 59 58 59 60 59 63 62 60 61 59 59 55 58 58 59 58 58 58 58 57 57 58 60

GFSNGP_sfc_temp_078.txt.gz
Temp
57 64 68 65 65 68 65 61 58 59 62 58 60 57 60 63 66 68 68 71 74 71 71 78 77 77 78 78 74 77 75 73 73 73 73 72 71 70 71 70 71 70 70 73
55 64 66 61 68 68 61 59 62 60 56 62 63 63 63 63 65 67 67 71 67 67 68 65 70 71 78 77 76 78 76 75 75 73 72 72 70 70 71 70 70 69 71 72
51 58 61 52 58 59 56 58 56 50 54 59 61 63 62 65 68 68 69 68 65 66 66 66 64 68 72 76 78 77 77 77 75 75 72 72 72 71 71 69 68 68 67 67
50 52 43 56 64 63 58 57 58 57 57 59 59 61 63 64 65 66 68 68 68 66 67 70 70 71 73 76 76 76 75 75 74 74 70 69 69 67 70 69 68 67 67 67
50 47 52 58 60 58 59 54 59 59 60 60 61 62 61 65 66 66 68 67 67 67 69 67 68 70 71 71 73 74 74 73 73 71 64 64 64 63 65 66 67 68 68 67
50 49 46 53 60 63 61 49 59 62 59 59 60 52 55 65 68 67 67 65 65 67 68 67 67 69 70 68 67 67 68 72 69 68 65 63 59 62 62 62 61 68 68 68
46 48 49 58 61 62 48 49 58 61 61 59 56 57 60 64 64 64 64 63 63 63 62 63 65 66 67 66 64 65 66 65 64 66 67 64 64 63 61 61 61 67 67 66
42 42 40 60 61 54 55 57 59 61 62 60 59 60 65 64 62 62 61 61 61 60 60 61 63 63 63 65 65 64 63 62 62 63 65 64 63 63 61 62 61 66 66 66
45 45 54 56 56 61 58 58 59 59 62 62 61 63 64 61 60 60 60 59 60 58 58 62 63 62 62 65 64 62 60 60 59 61 63 63 62 61 61 61 64 66 65 65
48 52 53 54 59 64 64 61 65 67 66 65 61 62 61 60 58 58 58 57 57 56 59 58 61 62 60 61 64 60 59 58 59 59 59 59 61 60 60 61 61 65 65 64
49 54 56 57 58 60 64 66 66 67 66 65 63 61 59 58 57 57 56 56 56 55 56 58 59 58 58 60 61 62 59 58 59 59 62 59 59 58 60 63 65 65 66 65
47 55 55 55 59 64 64 66 67 64 62 63 63 60 59 58 58 58 56 56 55 54 55 57 57 58 58 58 59 58 62 62 61 63 62 63 61 59 52 50 51 51 52 60
54 57 57 61 62 65 63 67 67 65 64 61 59 59 58 57 57 58 60 59 55 54 54 54 54 54 57 58 57 57 56 58 58 60 60 61 61 60 57 54 48 46 47 48
58 58 58 60 60 64 65 66 65 65 62 61 60 59 58 58 56 56 55 57 55 54 54 54 54 54 56 59 59 58 58 54 57 57 59 59 61 62 60 59 57 55 44 44
59 61 60 63 63 63 63 63 60 59 60 59 59 58 57 55 54 54 55 55 55 54 54 54 54 54 56 58 59 58 57 57 58 58 58 57 60 61 61 60 58 53 50 47
61 62 61 61 60 60 60 59 56 56 57 56 57 58 57 57 56 56 56 56 53 52 54 54 53 54 55 55 56 58 58 57 56 58 58 59 58 59 60 60 58 57 57 54
58 55 56 57 58 58 57 57 56 56 56 56 58 59 59 58 57 57 57 57 55 54 54 53 54 55 56 55 53 53 55 58 58 57 58 59 59 58 58 60 60 59 59 57
63 63 61 60 59 57 58 58 57 56 55 57 57 56 56 56 57 57 56 56 55 54 54 55 54 55 56 55 54 53 54 54 56 56 59 58 58 59 59 59 60 59 58 55
67 65 63 65 61 58 57 57 56 56 56 56 55 54 55 56 56 56 56 53 52 50 52 54 59 60 55 56 57 53 54 55 55 55 56 56 59 58 58 59 59 59 59 57
62 61 61 60 59 58 55 56 57 56 59 57 56 55 54 54 54 55 54 51 51 52 53 56 59 59 54 54 58 53 54 54 55 54 54 55 56 54 54 53 58 59 59 60
60 60 58 58 56 57 56 57 57 57 58 59 56 53 52 52 53 52 51 50 53 55 57 59 59 58 55 54 53 52 53 54 58 54 54 54 56 57 57 60 58 59 59 59
58 56 56 55 54 54 55 54 55 57 58 57 56 54 52 51 51 51 52 51 53 56 58 57 54 56 54 56 55 57 58 58 58 59 59 58 57 58 59 59 58 58 58 57
56 57 56 54 53 53 54 55 54 55 56 58 54 52 51 50 50 49 49 53 52 54 53 54 54 57 55 52 53 55 55 56 58 58 58 58 58 58 58 57 55 54 52 51
56 56 56 57 55 54 53 55 55 55 55 55 54 53 52 50 51 51 51 52 55 53 52 53 54 55 53 56 55 53 53 54 53 53 54 50 53 54 52 52 52 51 50 51
57 56 56 55 54 53 53 54 54 54 54 53 54 54 54 53 52 52 52 52 54 52 53 53 54 54 51 56 58 58 56 57 59 56 53 53 52 52 52 51 51 51 50 51
55 55 59 60 58 56 57 53 52 52 53 55 52 54 57 59 54 53 52 52 54 53 54 53 54 54 54 54 55 55 54 57 54 53 53 53 52 52 52 52 52 52 52 52
56 53 57 55 56 57 56 53 52 53 53 56 54 54 55 55 53 53 52 54 54 54 53 53 54 54 54 55 55 55 54 54 53 54 54 53 53 53 53 53 53 53 52 52

GFSNGP_sfc_temp_084.txt.gz
Temp
54 57 59 59 57 59 54 53 54 54 52 56 56 57 60 63 62 62 63 64 64 64 64 65 65 67 69 71 71 71 70 70 69 71 72 71 70 70 70 69 69 69 70 70
52 60 59 57 57 57 56 56 54 54 53 60 61 62 63 64 63 61 62 62 63 64 65 65 65 66 68 69 67 68 67 67 66 69 70 70 68 68 69 69 69 69 69 69
45 53 55 50 53 54 55 55 53 50 55 59 58 59 60 60 62 62 63 62 63 63 63 63 66 66 68 69 67 66 66 66 67 66 68 68 68 68 68 68 68 68 69 68
44 46 38 50 56 58 55 57 56 57 56 56 56 58 59 60 60 61 62 62 63 63 64 66 67 68 69 71 67 67 66 66 65 66 69 67 67 67 68 67 67 67 68 67
42 39 48 53 53 51 49 53 58 54 56 57 58 59 57 61 63 61 61 62 62 64 64 64 63 64 67 68 68 68 67 66 68 70 67 66 66 65 66 66 66 67 67 66
41 41 41 48 55 57 56 46 58 58 57 58 58 51 53 60 63 61 61 60 60 61 62 61 62 63 63 65 65 64 65 66 67 70 67 66 66 66 67 65 65 65 65 64
41 42 48 55 56 58 44 47 57 58 59 59 54 54 58 62 60 60 60 59 61 60 60 61 62 62 62 62 60 62 65 64 65 67 67 67 65 63 63 64 63 62 62 62
39 40 42 55 57 51 52 55 58 58 59 57 58 59 59 60 59 59 58 58 60 59 60 60 59 58 58 57 60 62 63 63 62 62 64 65 63 63 63 62 61 62 60 60
43 44 51 53 52 56 56 58 60 59 60 58 59 58 58 56 57 58 58 57 59 59 57 58 59 59 56 57 58 60 62 62 60 61 61 61 62 62 61 60 59 60 60 60
47 50 52 55 56 58 59 59 62 61 61 61 59 59 57 56 55 55 56 56 58 58 57 56 58 58 58 58 58 57 58 60 61 60 59 61 60 60 61 60 59 60 61 62
47 52 53 57 57 58 60 62 64 64 63 61 60 58 58 55 55 55 55 55 56 56 55 55 56 56 57 57 58 57 57 57 58 59 61 61 62 57 58 60 57 60 61 63
46 52 51 53 57 61 61 61 62 62 62 62 60 58 58 56 56 56 54 54 54 54 54 55 55 56 56 57 57 57 57 57 57 58 59 61 62 57 47 46 44 43 46 55
54 56 58 57 60 62 61 62 63 63 63 62 60 59 58 56 56 56 56 55 54 54 54 54 54 55 56 56 56 56 56 57 56 57 58 58 59 60 59 51 44 42 41 44
58 59 57 60 58 61 63 63 63 62 60 60 60 58 57 56 56 56 56 56 56 56 55 55 55 55 55 56 55 54 55 52 57 58 59 59 58 60 59 57 57 52 46 44
59 61 60 59 61 61 63 63 60 59 58 58 58 57 57 55 55 55 56 56 56 55 56 56 55 54 55 56 55 54 54 56 57 58 59 57 59 59 57 55 53 52 53 47
58 59 59 58 59 60 60 59 57 56 56 56 56 57 56 56 56 56 56 56 55 55 55 55 55 55 55 55 54 55 55 54 54 57 58 58 59 59 57 57 56 55 55 54
56 54 55 55 57 58 58 57 57 56 56 56 56 57 57 57 56 56 57 58 57 56 55 54 54 56 56 56 55 55 55 55 55 57 58 58 59 59 58 58 58 57 56 54
58 58 58 58 57 56 57 57 56 56 56 57 55 56 55 56 55 55 55 55 55 55 55 55 55 56 56 56 56 56 55 55 56 57 59 59 60 60 59 59 59 58 56 52
61 59 60 60 58 58 58 56 56 56 56 56 56 56 55 55 55 55 54 53 53 52 55 56 57 59 56 56 58 55 56 56 57 58 58 56 60 60 60 59 58 58 57 56
59 59 59 58 59 58 57 57 57 56 57 57 57 56 56 55 55 54 53 51 52 53 54 55 58 59 56 56 58 57 56 56 57 56 57 58 58 58 57 53 57 57 56 56
57 58 57 57 57 57 56 56 56 56 57 56 55 55 56 54 54 53 52 51 54 54 55 57 58 58 58 58 58 58 58 59 58 56 56 57 58 58 57 57 57 56 55 55
56 56 56 56 55 54 55 55 54 54 56 56 56 55 54 53 52 52 52 51 54 51 54 57 56 56 57 57 57 57 57 57 58 57 57 56 56 56 56 57 55 55 55 55
54 55 55 55 54 54 54 54 54 55 56 56 55 54 53 53 52 51 52 55 54 53 55 56 54 53 54 56 56 57 57 58 57 57 57 57 58 58 57 55 55 54 55 53
53 54 54 55 54 53 53 54 54 54 55 55 54 54 53 52 53 53 54 51 50 52 55 55 54 51 51 57 57 58 59 59 57 57 57 51 58 57 56 56 54 56 57 55
54 54 54 54 53 52 53 54 54 54 54 54 54 54 54 53 54 56 54 54 50 53 56 52 51 51 56 57 58 58 58 58 60 60 59 58 58 59 58 57 57 56 57 57
57 54 54 54 54 55 55 53 53 54 53 54 54 55 55 55 55 54 54 52 55 52 56 56 56 57 57 58 58 59 58 59 60 60 59 59 59 58 58 58 57 57 57 58
54 50 56 57 58 54 54 53 53 54 54 54 54 56 56 57 56 54 51 55 56 56 56 56 57 56 58 59 59 59 59 59 53 60 59 58 58 58 58 58 58 59 59 58